Location: Gleizolles
(44.4833°N, 6.7667°E)
Time: 14:02:28
(UTC+00:00)

Vanguard 1 - Pass Details

Date: 29 June 2024
Orbit: 650 x 3826 km, 34.3° (Epoch: 15 July)

Event Time Altitude Azimuth Distance (km) Brightness Sun altitude
Rises 05:37:58 0° 189° (S) 7,594 14.3 16.3°
Reaches altitude 10° 05:48:19 10° 166° (SSE) 5,906 14.1 18.0°
Maximum altitude 05:54:04 12° 146° (SSE) 5,196 14.1 19.0°
Drops below altitude 10° 05:58:58 10° 126° (SE) 4,911 14.3 19.9°
Sets 06:05:20 0° 100° (E) 5,186 15.0 21.0°
